| time (UTC) | temp F | wind direction | speed knots | gust knots | rain 1hr in | rain 24hr in | rain mn in | humidity % | barometer mb |
| 20260502224553 | 63 | 75 | 0.9 | 2.6 | 0.00 | 0.00 | 0.00 | 91 | 1014.8 |
| 20260502223051 | 62 | 75 | 0.9 | 3.5 | 0.00 | 0.00 | 0.00 | 90 | 1014.8 |
| 20260502221551 | 62 | 74 | 1.7 | 3.5 | 0.00 | 0.00 | 0.00 | 90 | 1014.8 |
| 20260502220049 | 62 | 113 | 0.9 | 2.6 | 0.00 | 0.00 | 0.00 | 90 | 1014.9 |
| 20260502214556 | 63 | 113 | 1.7 | 2.6 | 0.00 | 0.00 | 0.00 | 90 | 1015.1 |
| 20260502213048 | 63 | 113 | 0.0 | 0.9 | 0.00 | 0.00 | 0.00 | 90 | 1015.4 |
| 20260502211550 | 63 | 113 | 0.9 | 6.1 | 0.00 | 0.00 | 0.00 | 89 | 1015.3 |
| 20260502210045 | 63 | 111 | 4.3 | 6.1 | 0.00 | 0.00 | 0.00 | 89 | 1015.2 |
| 20260502204549 | 63 | 96 | 2.6 | 5.2 | 0.00 | 0.00 | 0.00 | 89 | 1015.2 |
| 20260502203106 | 63 | 103 | 4.3 | 7.0 | 0.00 | 0.00 | 0.00 | 89 | 1015.2 |
| 20260502201541 | 64 | 96 | 3.5 | 7.8 | 0.00 | 0.00 | 0.00 | 88 | 1014.8 |
| 20260502200041 | 64 | 134 | 5.2 | 8.7 | 0.00 | 0.00 | 0.00 | 88 | 1014.8 |
| 20260502194540 | 64 | 100 | 6.1 | 9.6 | 0.00 | 0.00 | 0.00 | 88 | 1014.5 |
| 20260502193037 | 64 | 113 | 4.3 | 9.6 | 0.00 | 0.00 | 0.00 | 87 | 1014.4 |
| 20260502191537 | 65 | 113 | 3.5 | 7.8 | 0.00 | 0.00 | 0.00 | 85 | 1014.5 |
| 20260502190036 | 65 | 111 | 4.3 | 9.6 | 0.00 | 0.00 | 0.00 | 85 | 1014.4 |
| 20260502184535 | 65 | 101 | 5.2 | 11.3 | 0.00 | 0.00 | 0.00 | 85 | 1014.4 |
| 20260502183033 | 65 | 103 | 7.8 | 11.3 | 0.00 | 0.00 | 0.00 | 84 | 1014.4 |
| 20260502181546 | 66 | 92 | 7.8 | 12.2 | 0.00 | 0.00 | 0.00 | 84 | 1014.6 |
| 20260502170103 | 68 | 113 | 7.0 | 9.6 | 0.00 | 0.00 | 0.00 | 80 | 1014.9 |
| 20260502163055 | 69 | 134 | 7.8 | 11.3 | 0.00 | 0.00 | 0.00 | 78 | 1015.1 |
| 20260502163052 | 69 | 110 | 7.8 | 11.3 | 0.00 | 0.00 | 0.00 | 78 | 1015.1 |
| 20260502161550 | 69 | 94 | 6.1 | 12.2 | 0.00 | 0.00 | 0.00 | 79 | 1015.3 |
| 20260502151559 | 70 | 63 | 7.0 | 11.3 | 0.00 | 0.00 | 0.00 | 75 | 1015.8 |
| 20260502123051 | 71 | 88 | 7.8 | 12.2 | 0.00 | 0.00 | 0.00 | 74 | 1017.1 |
| 20260502121521 | 71 | 87 | 7.8 | 13.9 | 0.00 | 0.00 | 0.00 | 73 | 1016.9 |
| 20260502114512 | 70 | 98 | 7.0 | 10.4 | 0.00 | 0.00 | 0.00 | 74 | 1017.8 |
| 20260502113009 | 70 | 96 | 5.2 | 12.2 | 0.00 | 0.00 | 0.00 | 75 | 1017.9 |
| 20260502111508 | 69 | 101 | 7.8 | 13.0 | 0.00 | 0.00 | 0.00 | 75 | 1017.7 |
| 20260502110006 | 70 | 88 | 8.7 | 14.8 | 0.00 | 0.00 | 0.00 | 77 | 1017.9 |
| 20260502104559 | 69 | 82 | 6.1 | 13.0 | 0.00 | 0.00 | 0.00 | 78 | 1018.1 |
| 20260502103101 | 69 | 78 | 7.8 | 13.9 | 0.00 | 0.00 | 0.00 | 77 | 1018.1 |
| 20260502101557 | 69 | 91 | 8.7 | 13.0 | 0.00 | 0.00 | 0.00 | 76 | 1018.2 |
| 20260502070050 | 65 | 40 | 0.9 | 2.6 | 0.00 | 0.00 | 0.00 | 87 | 1018.6 |
| 20260502064557 | 64 | 355 | 0.9 | 2.6 | 0.00 | 0.00 | 0.00 | 88 | 1018.8 |
| 20260502063049 | 64 | 355 | 0.9 | 2.6 | 0.00 | 0.00 | 0.00 | 88 | 1018.7 |
| 20260502061514 | 64 | 194 | 0.0 | 0.9 | 0.00 | 0.00 | 0.00 | 89 | 1018.7 |
| 20260502060112 | 64 | 194 | 0.0 | 0.9 | 0.00 | 0.00 | 0.00 | 90 | 1018.5 |
| 20260502054508 | 63 | 194 | 0.0 | 1.7 | 0.00 | 0.00 | 0.00 | 90 | 1018.4 |
| 20260502053007 | 63 | 194 | 0.0 | 1.7 | 0.00 | 0.00 | 0.00 | 90 | 1018.5 |
| 20260502051502 | 63 | 194 | 0.0 | 1.7 | 0.00 | 0.00 | 0.00 | 89 | 1018.4 |
| 20260502050002 | 63 | 194 | 0.9 | 2.6 | 0.00 | 0.00 | 0.00 | 89 | 1018.4 |
| 20260502044559 | 63 | 194 | 0.9 | 2.6 | 0.00 | 0.00 | 0.00 | 88 | 1018.2 |
| 20260502043100 | 64 | 308 | 0.9 | 2.6 | 0.00 | 0.00 | 0.00 | 88 | 1018.3 |
| 20260502041556 | 63 | 308 | 0.0 | 0.9 | 0.00 | 0.00 | 0.00 | 89 | 1018.0 |
| 20260502040106 | 64 | 308 | 0.9 | 1.7 | 0.00 | 0.00 | 0.00 | 88 | 1018.5 |
| 20260502034556 | 64 | 307 | 0.9 | 3.5 | 0.00 | 0.00 | 0.00 | 89 | 1018.4 |
| 20260502033050 | 63 | 248 | 0.9 | 1.7 | 0.00 | 0.00 | 0.00 | 89 | 1018.4 |
| 20260502031550 | 63 | 248 | 0.9 | 1.7 | 0.00 | 0.00 | 0.00 | 89 | 1018.4 |
| 20260502030046 | 63 | 197 | 0.0 | 0.9 | 0.00 | 0.00 | 0.00 | 90 | 1018.4 |
| 20260502024546 | 63 | 197 | 0.0 | 0.9 | 0.00 | 0.00 | 0.00 | 90 | 1018.5 |
| 20260502023050 | 63 | 197 | 0.9 | 1.7 | 0.00 | 0.00 | 0.00 | 90 | 1018.4 |
| 20260502021544 | 62 | 197 | 1.7 | 2.6 | 0.00 | 0.00 | 0.00 | 90 | 1018.4 |
| 20260502020053 | 63 | 197 | 0.9 | 1.7 | 0.00 | 0.00 | 0.00 | 91 | 1018.6 |
| 20260502014548 | 62 | 197 | 0.9 | 2.6 | 0.00 | 0.00 | 0.00 | 91 | 1018.7 |
| 20260502013033 | 62 | 196 | 0.0 | 2.6 | 0.00 | 0.00 | 0.00 | 90 | 1018.8 |
| 20260502011531 | 63 | 196 | 0.9 | 2.6 | 0.00 | 0.00 | 0.00 | 89 | 1018.9 |
| 20260502010032 | 63 | 84 | 0.0 | 1.7 | 0.00 | 0.00 | 0.00 | 89 | 1019.0 |
| 20260502004532 | 64 | 84 | 0.0 | 0.0 | 0.00 | 0.00 | 0.00 | 88 | 1019.0 |
| 20260502003025 | 64 | 84 | 0.0 | 0.0 | 0.00 | 0.00 | 0.00 | 88 | 1019.3 |
| 20260502001536 | 64 | 84 | 0.0 | 0.0 | 0.00 | 0.00 | 0.00 | 87 | 1019.6 |
| 20260502000024 | 64 | 84 | 0.0 | 0.0 | 0.00 | 0.01 | 0.00 | 88 | 1019.8 |
| 20260501234523 | 64 | 84 | 0.0 | 0.0 | 0.00 | 0.01 | 0.00 | 88 | 1020.0 |
| 20260501233054 | 64 | 84 | 0.0 | 0.9 | 0.00 | 0.01 | 0.00 | 89 | 1020.1 |
| 20260501231553 | 64 | 84 | 0.9 | 3.5 | 0.00 | 0.01 | 0.00 | 89 | 1020.1 |
| 20260501230022 | 63 | 175 | 0.0 | 2.6 | 0.00 | 0.01 | 0.00 | 90 | 1020.1 |